Time,TemperatureF,DewpointF,PressureIn,WindDirection,WindDirectionDegrees,WindSpeedMPH,WindSpeedGustMPH,Humidity,HourlyPrecipIn,Conditions,Clouds,dailyrainin,SolarRadiationWatts/m^2,SoftwareType,DateUTC
2013-09-20 00:21:00,45.0,38.0,-100.00,ENE,68,3.0,3.0,75,0.00,,,-99.99,0.000000,,2013-09-20 06:21:00,
2013-09-20 00:33:00,45.0,38.0,-100.00,ENE,68,3.0,3.0,75,0.00,,,-99.99,0.000000,,2013-09-20 06:33:00,
2013-09-20 00:42:00,45.0,38.0,-100.00,ENE,68,3.0,3.0,75,0.00,,,-99.99,0.000000,,2013-09-20 06:42:00,
2013-09-20 02:52:00,42.0,36.0,-100.00,ENE,76,3.0,4.0,78,0.00,,,-99.99,0.000000,,2013-09-20 08:52:00,
2013-09-20 03:22:00,41.0,36.0,-100.00,NE,49,4.0,4.0,81,0.00,,,-99.99,0.000000,,2013-09-20 09:22:00,
2013-09-20 04:50:00,44.0,35.0,-100.00,WNW,303,2.0,4.0,70,0.00,,,-99.99,0.000000,,2013-09-20 10:50:00,
2013-09-20 05:23:00,44.0,35.0,-100.00,WNW,303,2.0,4.0,70,0.00,,,-99.99,0.000000,,2013-09-20 11:23:00,
2013-09-20 05:33:00,44.0,35.0,-100.00,WNW,303,2.0,4.0,70,0.00,,,-99.99,0.000000,,2013-09-20 11:33:00,
2013-09-20 05:42:00,44.0,35.0,-100.00,WNW,303,2.0,4.0,70,0.00,,,-99.99,0.000000,,2013-09-20 11:42:00,
2013-09-20 09:50:00,60.0,36.0,-100.00,WSW,244,3.0,7.0,41,0.00,,,-99.99,524.000000,,2013-09-20 15:50:00,
2013-09-20 10:23:00,60.0,36.0,-100.00,WSW,244,3.0,7.0,41,0.00,,,-99.99,524.000000,,2013-09-20 16:23:00,
2013-09-20 10:42:00,60.0,36.0,-100.00,WSW,244,3.0,7.0,41,0.00,,,-99.99,524.000000,,2013-09-20 16:42:00,
2013-09-20 14:50:00,79.0,39.0,-100.00,SW,230,6.0,8.0,24,0.00,,,-99.99,831.000000,,2013-09-20 20:50:00,
2013-09-20 15:21:00,79.0,39.0,-100.00,SW,230,6.0,8.0,24,0.00,,,-99.99,831.000000,,2013-09-20 21:21:00,
2013-09-20 15:34:00,79.0,39.0,-100.00,SW,230,6.0,8.0,24,0.00,,,-99.99,831.000000,,2013-09-20 21:34:00,
2013-09-20 15:44:00,79.0,39.0,-100.00,SW,230,6.0,8.0,24,0.00,,,-99.99,831.000000,,2013-09-20 21:44:00,
2013-09-20 17:53:00,82.0,40.0,-100.00,SW,236,5.0,9.0,23,0.00,,,-99.99,374.000000,,2013-09-20 23:53:00,
2013-09-20 18:21:00,80.0,42.0,-100.00,West,278,6.0,8.0,26,0.00,,,-99.99,262.000000,,2013-09-21 00:21:00,
2013-09-20 19:50:00,64.0,46.0,-100.00,East,80,3.0,4.0,53,0.00,,,-99.99,0.000000,,2013-09-21 01:50:00,
2013-09-20 20:22:00,64.0,46.0,-100.00,East,80,3.0,4.0,53,0.00,,,-99.99,0.000000,,2013-09-21 02:22:00,
2013-09-20 20:32:00,64.0,46.0,-100.00,East,80,3.0,4.0,53,0.00,,,-99.99,0.000000,,2013-09-21 02:32:00,
2013-09-20 20:42:00,64.0,46.0,-100.00,East,80,3.0,4.0,53,0.00,,,-99.99,0.000000,,2013-09-21 02:42:00,
2013-09-20 21:22:00,64.0,41.0,-100.00,NNE,22,4.0,6.0,42,0.00,,,-99.99,0.000000,,2013-09-21 03:22:00,
2013-09-20 23:23:00,68.0,34.0,-100.00,NNE,31,9.0,11.0,28,0.00,,,-99.99,0.000000,,2013-09-21 05:23:00,
2013-09-20 23:52:00,68.0,33.0,-100.00,NE,44,9.0,11.0,27,0.00,,,-99.99,0.000000,,2013-09-21 05:52:00,